Weather History for Friday Harbor, WA

Change the Weather History Date:

Wednesday, January 23, 2013

  Actual Average Record
Temperature  
Mean Temperature 40 °F -  
Max Temperature 44 °F 44 °F 55 °F (2005)
Min Temperature 37 °F 36 °F 23 °F (2008)
Degree Days  
Heating Degree Days 24    
Moisture  
Dew Point 39 °F    
Average Humidity 91    
Maximum Humidity 96    
Minimum Humidity 85    
Precipitation  
Precipitation 0.02 in - - ()
Sea Level Pressure  
Sea Level Pressure 29.91 in    
Wind  
Wind Speed 2 mph (South)    
Max Wind Speed 9 mph    
Max Gust Speed -    
Visibility 8 miles    
Events Rain    
Averages and records for this station are not official NWS values.
T = Trace of Precipitation, MM = Missing Value Source: NWS Daily Summary

Daily Weather History Graph

Daily Weather History Graph

Search for Another Location

Airport:

Trip Planner

Search our weather history database for the weather conditions in past years. The results will help you decide how hot, cold, wet, or windy it might be!

Date:

Astronomy

Jan. 23, 2013 Rise Set
Actual Time 7:51 AM PST 4:57 PM PST
Civil Twilight 7:16 AM PST 5:31 PM PST
Nautical Twilight 6:38 AM PST 6:10 PM PST
Astronomical Twilight 6:01 AM PST 6:47 PM PST
Moon 2:08 PM PST (1/23) 5:11 AM PST (1/23)
Length of Visible Light 10h 14m
Length of Day
9h 05m
Waxing Gibbous, 90% of the Moon is Illuminated
Jan 23
Waxing Gibbous
Jan 26
Full
Feb 3
Last Quarter
Feb 9
New
Feb 17
First Quarter

Hourly Weather History & Observations

Time (PST) Temp. Windchill Dew Point Humidity Pressure Visibility Wind Dir Wind Speed Gust Speed Precip Events Conditions
12:53 AM 37.9 °F 35.5 °F 35.1 °F 89% 29.93 in 10.0 mi NNE 3.5 mph - N/A   Overcast
1:53 AM 37.9 °F - 36.0 °F 93% 29.94 in 10.0 mi Calm Calm - N/A   Overcast
2:53 AM 37.0 °F - 35.1 °F 93% 29.94 in 10.0 mi Calm Calm - N/A   Overcast
3:53 AM 37.0 °F - 36.0 °F 96% 29.95 in 10.0 mi Calm Calm - N/A   Overcast
4:53 AM 39.0 °F - 36.0 °F 89% 29.91 in 10.0 mi Calm Calm - N/A   Overcast
5:53 AM 39.9 °F - 36.0 °F 86% 29.88 in 10.0 mi Calm Calm - N/A   Overcast
6:53 AM 39.0 °F - 36.0 °F 89% 29.89 in 10.0 mi Calm Calm - N/A   Overcast
7:53 AM 39.9 °F 37.8 °F 36.0 °F 86% 29.87 in 10.0 mi WNW 3.5 mph - 0.00 in   Overcast
8:53 AM 39.9 °F 37.8 °F 37.0 °F 89% 29.87 in 10.0 mi North 3.5 mph - 0.00 in Rain Light Rain
9:53 AM 41.0 °F 39.0 °F 39.0 °F 93% 29.86 in 8.0 mi NE 3.5 mph - 0.00 in Rain Light Rain
10:53 AM 42.1 °F 40.2 °F 39.0 °F 89% 29.85 in 10.0 mi NNE 3.5 mph - 0.00 in   Overcast
11:17 AM 42.8 °F - 39.2 °F 87% 29.84 in 10.0 mi Calm Calm - 0.00 in   Overcast
11:32 AM 42.8 °F - 39.2 °F 87% 29.84 in 9.0 mi Calm Calm - 0.00 in   Overcast
11:53 AM 43.0 °F 41.3 °F 39.9 °F 89% 29.84 in 10.0 mi NNE 3.5 mph - 0.00 in   Overcast
12:53 PM 44.1 °F - 41.0 °F 89% 29.82 in 7.0 mi Calm Calm - 0.00 in Rain Light Rain
1:23 PM 44.6 °F - 41.0 °F 87% 29.82 in 7.0 mi Calm Calm - 0.00 in Rain Light Rain
1:53 PM 44.1 °F - 43.0 °F 96% 29.83 in 5.0 mi Calm Calm - 0.00 in Rain Light Rain
2:35 PM 44.6 °F - 41.0 °F 87% 29.84 in 3.0 mi Calm Calm - 0.00 in Rain Light Rain
2:53 PM 43.0 °F - 41.0 °F 93% 29.86 in 4.0 mi Calm Calm - 0.01 in Rain Light Rain
3:08 PM 42.8 °F - 41.0 °F 93% 29.85 in 3.0 mi Calm Calm - 0.01 in Rain Light Rain
3:53 PM 43.0 °F 40.3 °F 41.0 °F 93% 29.88 in 4.0 mi SSE 4.6 mph - 0.01 in Rain Light Rain
4:22 PM 42.8 °F 39.3 °F 41.0 °F 93% 29.88 in 4.0 mi SSE 5.8 mph - 0.00 in Rain Light Rain
4:46 PM 42.8 °F 40.1 °F 41.0 °F 93% 29.89 in 7.0 mi South 4.6 mph - 0.00 in   Overcast
4:53 PM 42.1 °F 38.4 °F 39.9 °F 92% 29.90 in 7.0 mi South 5.8 mph - 0.00 in   Overcast
4:55 PM 42.8 °F 39.3 °F 39.2 °F 87% 29.89 in 7.0 mi South 5.8 mph - N/A   Overcast
5:53 PM 42.1 °F 40.2 °F 41.0 °F 96% 29.92 in 10.0 mi SSW 3.5 mph - N/A   Overcast
6:50 PM 42.8 °F 41.1 °F 41.0 °F 93% 29.94 in 10.0 mi South 3.5 mph - 0.00 in   Overcast
7:22 PM 42.8 °F - 41.0 °F 93% 29.96 in 10.0 mi Calm Calm - 0.00 in   Overcast
7:48 PM 42.8 °F 39.3 °F 41.0 °F 93% 29.97 in 10.0 mi South 5.8 mph - 0.00 in   Overcast
7:53 PM 43.0 °F 39.5 °F 41.0 °F 93% 29.98 in 10.0 mi South 5.8 mph - 0.00 in   Overcast
8:34 PM 42.8 °F 38.0 °F 41.0 °F 93% 29.99 in 10.0 mi South 8.1 mph - N/A   Mostly Cloudy
8:53 PM 43.0 °F 38.8 °F 41.0 °F 93% 30.01 in 10.0 mi South 6.9 mph - N/A   Scattered Clouds
9:53 PM 42.1 °F 39.2 °F 39.0 °F 89% 30.04 in 10.0 mi SW 4.6 mph - N/A   Partly Cloudy
10:53 PM 43.0 °F 38.8 °F 39.0 °F 86% 30.07 in 10.0 mi WSW 6.9 mph - N/A   Mostly Cloudy
11:53 PM 42.1 °F 36.6 °F 37.9 °F 85% 30.11 in 10.0 mi SW 9.2 mph - N/A   Partly Cloudy